Location: Rounton
(54.4000°N, 1.3500°W)
Time: 16:39:22
(UTC+00:00)

X-37B - Pass Details

Date: 13 December 2022
Orbit: 277 x 277 km, 45.0° (Epoch: 01 November)

Event Time Altitude Azimuth Distance (km) Brightness Sun altitude
Rises 17:32:02 0° 233° (SW) 1,914 5.6 -14.8°
Reaches altitude 10° 17:35:17 10° 186° (S) 1,102 3.2 -15.3°
Maximum altitude 17:35:39 10° 177° (S) 1,090 3.0 -15.3°
Drops below altitude 10° 17:36:02 10° 168° (SSE) 1,102 3.0 -15.4°
Enters shadow 17:36:40 - 154° (SSE) 1,174 2.9 -15.4°
